Location: Ore Lake
(42.4733°N, 83.8017°W)
Time: 07:39:21
(UTC-04:00)

Daily predictions for brighter satellites

Satellite Brightness Start Highest point End
(mag) Time Altitude Azimuth Time Altitude Azimuth Time Altitude Azimuth
Cosmos 2278 Rocket 3.7 20:46:28 10° N 20:50:38 20° NE 20:54:45 10° E
ATLAS CENTAUR R/B 2.9 20:49:49 10° SE 20:51:25 12° ESE 20:53:02 10° E
Cosmos 1726 4.2 20:52:21 10° SW 20:55:48 34° WNW 20:59:16 10° N
Cosmos 1666 Rocket 4.1 20:53:01 10° N 20:57:16 40° ENE 21:01:28 10° SSE
USA 186 1.5 20:56:49 10° SE 20:58:54 36° ENE 21:01:02 10° N
Resurs 1-3 4.1 20:55:35 10° SE 20:59:43 43° ENE 21:03:53 10° N
OAO 2 Rocket 4.2 20:55:37 10° WSW 21:00:22 36° S 21:04:57 10° ESE
NOSS 3-3 (A) 4.4 20:55:11 10° S 21:00:40 39° ESE 21:06:36 10° NE
NOSS 3-3 (C) 4.4 20:55:19 10° S 21:00:47 38° ESE 21:06:42 10° NE
H-2A R/B 3.9 20:59:37 10° E 21:01:42 13° ENE 21:03:47 10° NE
Cosmos 494 Rocket 4.2 21:00:37 10° NNW 21:05:49 75° WSW 21:11:02 10° SSE
YAOGAN 6 2.7 21:03:14 10° SSE 21:06:45 56° ENE 21:10:19 10° N
Cosmos 1809 Rocket 4.5 21:04:54 10° S 21:11:00 69° E 21:17:09 10° NNE
USA 267 4.5 21:08:10 10° E 21:12:10 17° ESE 21:16:09 10° SSE
Sich 1 3.0 21:08:12 10° N 21:12:28 64° E 21:16:41 10° SSE
In-Cosmos 22 Rocket 4.2 21:07:23 10° NNW 21:12:55 84° W 21:18:16 10° S
Nadezhda 3 Rocket 4.1 21:07:24 10° N 21:13:41 65° E 21:19:59 10° SSE
Cosmos 1340 2.6 21:11:31 10° S 21:15:17 76° E 21:19:06 10° NNE
Cosmos 1151 Rocket 4.2 21:13:26 11° SE 21:16:40 23° E 21:20:04 10° NE
Cosmos 2251 Rocket 3.5 21:11:40 10° NNW 21:17:05 78° ENE 21:22:26 10° SSE
Cosmos 1939 Rocket 2.7 21:17:16 10° SSE 21:21:08 82° ENE 21:25:02 10° N
SJ-6B 4.1 21:18:13 10° S 21:22:05 43° W 21:25:55 10° NNW
Cosmos 2322 4.4 21:17:09 10° SW 21:22:43 59° WNW 21:28:21 10° NNE
Envisat 3.8 21:20:37 10° S 21:25:33 52° W 21:30:32 10° NNW
Cosmos 1825 3.6 21:24:12 10° NNE 21:27:09 21° ENE 21:28:24 18° E
Meteor 2-3 Rocket 3.8 21:23:38 10° N 21:29:11 60° ENE 21:34:38 11° SSE
Meteor 2-14 Rocket 4.4 21:24:25 10° S 21:30:28 73° E 21:36:35 10° NNE
Cosmos 1633 Rocket 2.9 21:26:55 10° N 21:31:17 78° E 21:35:37 10° SSE
SL-16 R/B 4.0 21:33:18 12° E 21:33:18 12° E 21:34:24 10° ENE
Cosmos 2098 Rocket 4.5 21:31:01 18° ESE 21:32:18 20° E 21:35:24 10° NE
Meteor 2-15 Rocket 4.5 21:29:31 10° N 21:35:42 87° W 21:41:49 10° S
Cosmos 2228 Rocket 3.5 21:32:02 11° SSE 21:35:53 40° E 21:39:59 10° NNE
SL-8 R/B 4.4 21:34:27 10° SSW 21:38:41 32° SE 21:41:34 17° E
SL-24 R/B - RUBIN 2 3.8 21:34:52 10° NW 21:39:10 63° WSW 21:42:34 16° SSE
Meteor 2-16 Rocket 4.4 21:33:16 10° S 21:39:21 71° E 21:45:27 10° NNE
Cosmos 1515 Rocket 3.9 21:37:19 11° SSE 21:41:22 46° E 21:45:39 10° NNE
Thor Agena Rocket 4.3 21:39:24 10° N 21:44:31 56° WNW 21:49:40 10° SSW
ARGOS 3.7 21:44:34 22° SE 21:47:30 41° ENE 21:52:30 10° N
Cosmos 2154 Rocket 4.4 21:43:18 10° SSW 21:49:31 66° W 21:55:44 10° N
BREEZE-M DEB (TANK) 2.9 21:46:49 10° WNW 21:50:18 38° NNE 21:51:02 29° ENE
GEOS 3 Rocket 4.3 21:45:59 10° NE 21:50:45 32° ESE 21:55:24 10° S
Resurs 01 Rocket 2.6 21:53:23 10° S 21:57:40 46° W 22:01:58 10° NNW
Cosmos 1980 3.7 21:53:18 10° S 21:58:52 59° ESE 22:04:27 10° NNE
Meteor 1-27 4.3 21:53:10 10° SSW 21:58:55 82° W 22:04:38 10° N
Cosmos 1727 Rocket 4.4 21:56:36 10° N 22:02:26 42° ENE 22:04:57 29° SE
Cosmos 1328 Rocket 3.8 21:58:11 10° SSW 22:02:33 70° W 22:07:00 10° N
BREEZE-M DEB (TANK) 4.2 21:55:45 10° W 22:02:43 35° NNW 22:05:13 12° NE
Cosmos 2333 Rocket 2.3 21:59:26 10° SSW 22:05:06 80° WNW 22:10:48 10° NNE
Cosmos 1959 Rocket 4.5 22:00:08 14° S 22:05:24 61° E 22:11:25 10° NNE
Spot 2 Rocket 4.2 22:03:43 10° S 22:08:38 53° W 22:13:37 10° NNW
Cosmos 2341 Rocket 4.3 22:03:27 10° SSW 22:09:46 69° W 22:16:07 10° N
COSMOS 2428 3.9 22:05:04 10° SW 22:10:32 44° WNW 22:16:01 10° NNE
Cosmos 1470 Rocket 3.7 22:08:00 10° NNW 22:12:24 73° W 22:14:51 26° S
Meteor 2-10 Rocket 4.0 22:11:14 31° SSE 22:13:36 49° E 22:19:10 10° NNE
Cosmos 1455 3.5 22:10:19 10° SSW 22:13:56 40° WNW 22:17:36 10° N
ATLAS 2AS CENTAUR R/B 3.0 22:06:02 10° NW 22:13:58 80° WSW 22:18:17 28° SSE
Cosmos 2218 Rocket 3.9 22:11:56 13° S 22:17:41 77° E 22:24:05 10° N
Cosmos 1844 Rocket 4.2 22:12:41 10° NW 22:17:41 32° WSW 22:22:37 10° SSW
Cosmos 1862 4.5 22:15:16 10° NNE 22:18:24 29° ENE 22:18:24 29° ENE
Terra 3.5 22:21:55 18° ENE 22:22:00 18° ENE 22:25:14 10° NNE
Cosmos 1408 2.9 22:20:50 10° NNW 22:24:28 63° W 22:25:16 47° SSW
Cosmos 2237 Rocket 2.1 22:21:09 10° SSW 22:26:47 90° WNW 22:32:27 10° NNE
Cosmos 2219 Rocket 3.3 22:22:31 10° SW 22:27:56 45° WNW 22:33:22 10° NNE
ATLAS CENTAUR R/B 1.9 22:26:17 10° SW 22:29:51 51° NW 22:33:37 10° NNE
Lacrosse 5 4.3 22:26:56 10° NNW 22:30:10 17° N 22:33:24 10° NE
SPOT 5 3.2 22:30:51 41° ENE 22:31:01 42° ENE 22:35:16 10° N
USA 81 4.1 22:26:45 10° N 22:31:59 61° E 22:32:58 51° SE
Cosmos 2366 rocket 3.9 22:27:19 19° S 22:32:00 89° E 22:38:20 10° N
SPOT 1/Viking Rocket 4.0 22:31:21 41° E 22:32:04 43° ENE 22:37:00 10° N
Cosmos 2278 Rocket 2.3 22:29:37 10° NNW 22:35:16 70° WSW 22:37:23 39° S
Genesis I 3.8 22:31:32 10° NW 22:35:30 49° WSW 22:35:57 46° SW
MetOp-A 4.2 22:33:31 36° S 22:35:44 75° WSW 22:41:07 10° NNW
NOSS 0 Rocket 4.3 22:30:40 10° SW 22:36:47 66° WNW 22:42:59 10° NNE
TRAILBLAZER 4.4 22:35:44 40° SSW 22:37:19 77° ESE 22:42:01 10° NE
Cosmos 405 Rocket 4.3 22:41:01 25° NE 22:41:01 25° NE 22:42:55 10° NNE
H-2A R/B 1.9 22:39:07 51° S 22:40:26 87° WSW 22:45:28 10° NNW
NOSS 3-4 (A) 4.0 22:37:17 10° NNW 22:44:14 61° NE 22:46:43 42° ESE
NOSS 3-4 (C) 4.0 22:37:23 10° NNW 22:44:20 61° NE 22:46:49 41° ESE
ATLAS 5 CENTAUR R/B 4.4 22:42:56 10° N 22:46:26 16° NNE 22:49:39 11° ENE
Cosmos 407 Rocket 3.3 22:42:27 10° NNW 22:47:35 71° ENE 22:48:01 67° ESE
Cosmos 1339 Rocket 4.5 22:43:32 10° N 22:49:37 76° W 22:52:00 39° S
ERS-1 Rocket 3.0 22:50:18 57° S 22:51:17 75° WSW 22:56:19 10° NNW
Cosmos 1371 Rocket 4.2 22:50:10 23° SSW 22:53:30 73° WNW 22:58:53 10° NNE
Cosmos 1707 Rocket 4.4 22:57:03 39° NE 22:57:03 39° NE 22:59:56 10° NNE
USA 267 3.1 22:49:22 10° NE 22:55:54 70° SE 23:02:25 10° SW
Cosmos 614 Rocket 4.5 22:51:54 10° N 22:56:51 45° ENE 22:56:51 45° ENE
Cosmos 1825 4.1 22:59:33 10° NW 23:02:39 24° W 23:03:17 23° WSW
Cosmos 1869 Rocket 3.7 22:58:49 10° N 23:02:44 69° NNW 23:02:44 69° NNW
Cosmos 676 Rocket 4.1 23:00:01 10° NNW 23:05:05 63° ENE 23:05:05 63° ENE
SL-19 R/B 4.1 23:09:46 77° SE 23:10:08 84° ENE 23:15:45 10° NNW
Cosmos 2344 3.5 23:10:53 54° SSE 23:11:54 58° ESE 23:19:54 10° NE
Cosmos 2056 Rocket 4.0 23:13:06 35° SW 23:15:17 60° WNW 23:20:39 10° NNE
SL-16 R/B 2.1 23:15:04 79° SSW 23:15:26 89° WNW 23:21:08 10° NNE
Helios 1B rocket 3.5 23:11:41 10° NNE 23:14:23 40° N 23:14:23 40° N
Cosmos 1452 Rocket 4.5 23:18:16 36° NE 23:18:16 36° NE 23:21:28 10° NNE
SL-8 R/B 4.5 23:16:12 10° WSW 23:19:41 46° W 23:19:41 46° W
Helios 1A 4.3 23:26:20 36° WNW 23:26:20 36° WNW 23:29:39 10° NNW
USA 234 3.8 23:27:52 41° ENE 23:29:37 51° NNE 23:35:54 10° NW
Cosmos 1934 Rocket 4.1 23:31:58 59° NE 23:31:58 59° NE 23:37:12 10° NNE
Cosmos 1943 Rocket 3.8 23:27:54 10° N 23:32:07 22° NE 23:32:07 22° NE
CZ-2C R/B 3.9 23:39:38 40° NNE 23:39:38 40° NNE 23:42:51 10° N
Cosmos 2297 4.3 23:39:48 10° NW 23:44:54 47° W 23:44:54 47° W
Cosmos 1140 Rocket 4.1 23:42:20 10° NNW 23:46:26 52° NW 23:46:26 52° NW
Cosmos 1821 Rocket 4.2 23:53:04 61° WSW 23:53:33 63° W 23:59:50 10° N
SeaSat 1 4.4 23:55:37 20° NE 23:55:37 20° NE 23:58:42 10° N
